Regional Weather Roundup
Issued by NWS State College, PA

Home | Current Version | Previous Version | Graphics & Text | Print | Product List | Glossary Off
Versions: 1 2 3 4 5 6 7 8 9 10 11 12 13 14 15 16 17 18 19 20 21 22 23 24 25 26 27 28 29 30 31 32 33 34 35 36 37 38 39 40 41 42 43 44 45 46 47 48 49 50

000
ASUS41 KCTP 040510
RWRCTP

REGIONAL WEATHER ROUNDUP
NATIONAL WEATHER SERVICE STATE COLLEGE PA
1200 AM EST SUN DEC 04 2016

Note: "fair" indicates few or no clouds below 12,000 feet with no
significant weather and/or obstructions to visibility.

* = STATION THAT DOES NOT REPORT PRECIPITATION /E.G. RAIN...SNOW...ETC/
    THUNDER OR FOG.

PAZ002>004-007>009-013>016-020>023-029>032-040600-
WESTERN PENNSYLVANIA

CITY           SKY/WX    TMP DP  RH WIND       PRES   REMARKS
ERIE           CLOUDY    39  34  82 SW9       30.26S
MEADVILLE      CLOUDY    33  30  88 W9        30.25S
FRANKLIN*        N/A     34  27  75 W5        30.26S
NEW CASTLE     CLOUDY    35  28  75 CALM      30.28F
BEAVER COUNTY  NOT AVBL
BUTLER*        CLOUDY    34  27  75 SW3       30.29F
PITTSBURGH INT CLOUDY    37  27  67 CALM      30.28S
PITTSBURGH     CLOUDY    35  24  64 W7        30.27S
INDIANA*       CLOUDY    36  30  80 W5        30.29S
LATROBE        CLOUDY    34  28  80 SW3       30.30R
WASHINGTON CO* CLOUDY    34  25  69 CALM      30.29S
$$

PAZ004>006-010>012-017>019-024>028-033>037-041-042-045-046-049>053-040600-
CENTRAL PENNSYLVANIA

CITY           SKY/WX    TMP DP  RH WIND       PRES   REMARKS
BRADFORD       CLOUDY    33  31  92 NW6       30.19S
DUBOIS         CLOUDY    33  30  88 W9        30.22R
CLEARFIELD     CLOUDY    36  33  89 W5        30.24R
JOHNSTOWN      CLOUDY    31  27  85 W8        30.21S
ALTOONA        CLOUDY    36  29  75 W9        30.24S
STATE COLLEGE  CLOUDY    37  32  81 W12       30.23R
WILLIAMSPORT   CLOUDY    41  30  65 W8        30.21S
SELINSGROVE    CLOUDY    41  34  76 CALM      30.23S
FT INDIANTOWN  CLOUDY    42  30  62 VRB6      30.21R
CAPITAL CITY   CLOUDY    45  28  51 NW7       30.23R
HARRISBURG     CLOUDY    44  31  60 NW10      30.22R
YORK           CLOUDY    41  31  67 W7        30.23S
$$

PAZ038>040-043-044-047-048-054-055-060>062-067>071-040600-
EASTERN PENNSYLVANIA

CITY           SKY/WX    TMP DP  RH WIND       PRES   REMARKS
SCRANTON       CLOUDY    38  24  57 N14G24    30.18R
MOUNT POCONO   CLOUDY    32  21  64 NW15G24   30.13R
ALLENTOWN      CLOUDY    43  25  49 NW7       30.20R
QUAKERTOWN*    CLOUDY    41  25  52 NW9G17    30.20R
READING        CLOUDY    43  28  55 NW9       30.21R
LANCASTER      CLOUDY    44  31  60 NW9       30.22R
COATESVILLE    CLOUDY    43  32  65 NW8       30.21S
POTTSTOWN      CLOUDY    43  28  55 VRB7      30.22R
BLUE BELL      CLOUDY    41  28  60 N7        30.20R
DOYLESTOWN     CLOUDY    44  26  49 NW8       30.18S
WILLOW GROVE   NOT AVBL
NORTH PHILA    CLOUDY    45  26  47 NW9       30.21R
PHILADELPHIA   MOCLDY    46  29  51 NW10      30.21R
$$




USA.gov is the U.S. government's official web portal to all federal, state and local government web resources and services.